Year,Month,Day,Hour,Minute,Value (Times are PST for windspeed in km/hr)
2010,01,17,00,00,7.00
2010,01,17,00,01,6.70
2010,01,17,00,02,6.00
2010,01,17,00,03,7.60
2010,01,17,00,04,5.70
2010,01,17,00,05,4.30
2010,01,17,00,06,4.90
2010,01,17,00,07,7.00
2010,01,17,00,08,9.30
2010,01,17,00,09,7.90
2010,01,17,00,10,6.90
2010,01,17,00,11,5.60
2010,01,17,00,12,5.30
2010,01,17,00,13,4.30
2010,01,17,00,14,2.90
2010,01,17,00,15,4.00
2010,01,17,00,16,2.70
2010,01,17,00,17,2.50
2010,01,17,00,18,0.00
2010,01,17,00,19,0.00
2010,01,17,00,20,0.00
2010,01,17,00,21,0.00
2010,01,17,00,22,0.00
2010,01,17,00,23,0.00
2010,01,17,00,24,0.00
2010,01,17,00,25,0.00
2010,01,17,00,26,0.00
2010,01,17,00,27,0.00
2010,01,17,00,28,0.00
2010,01,17,00,29,0.10
2010,01,17,00,30,3.40
2010,01,17,00,31,3.80
2010,01,17,00,32,4.00
2010,01,17,00,33,4.50
2010,01,17,00,34,4.10
2010,01,17,00,35,2.40
2010,01,17,00,36,2.30
2010,01,17,00,37,2.20
2010,01,17,00,38,1.50
2010,01,17,00,39,3.20
2010,01,17,00,40,0.90
2010,01,17,00,41,0.30
2010,01,17,00,42,0.00
2010,01,17,00,43,0.80
2010,01,17,00,44,1.80
2010,01,17,00,45,3.00
2010,01,17,00,46,0.10
2010,01,17,00,47,1.30
2010,01,17,00,48,1.20
2010,01,17,00,49,0.00
2010,01,17,00,50,1.10
2010,01,17,00,51,2.30
2010,01,17,00,52,2.10
2010,01,17,00,53,2.50
2010,01,17,00,54,3.00
2010,01,17,00,55,4.50
2010,01,17,00,56,3.50
2010,01,17,00,57,3.10
2010,01,17,00,58,1.90
2010,01,17,00,59,0.50
2010,01,17,01,00,0.00
2010,01,17,01,01,0.00
2010,01,17,01,02,0.00
2010,01,17,01,03,0.00
2010,01,17,01,04,0.00
2010,01,17,01,05,0.00
2010,01,17,01,06,0.00
2010,01,17,01,07,0.90
2010,01,17,01,08,0.50
2010,01,17,01,09,1.50
2010,01,17,01,10,0.80
2010,01,17,01,11,1.40
2010,01,17,01,12,2.10
2010,01,17,01,13,2.50
2010,01,17,01,14,3.00
2010,01,17,01,15,3.80
2010,01,17,01,16,3.00
2010,01,17,01,17,2.60
2010,01,17,01,18,2.70
2010,01,17,01,19,1.60
2010,01,17,01,20,0.10
2010,01,17,01,21,0.30
2010,01,17,01,22,0.90
2010,01,17,01,23,1.70
2010,01,17,01,24,1.00
2010,01,17,01,25,0.00
2010,01,17,01,26,0.00
2010,01,17,01,27,0.00
2010,01,17,01,28,0.00
2010,01,17,01,29,0.00
2010,01,17,01,30,0.00
2010,01,17,01,31,0.00
2010,01,17,01,32,0.00
2010,01,17,01,33,0.00
2010,01,17,01,34,0.00
2010,01,17,01,35,0.00
2010,01,17,01,36,0.00
2010,01,17,01,37,0.00
2010,01,17,01,38,0.00
2010,01,17,01,39,0.00
2010,01,17,01,40,0.00
2010,01,17,01,41,0.00
2010,01,17,01,42,0.00
2010,01,17,01,43,0.00
2010,01,17,01,44,0.00
2010,01,17,01,45,0.00
2010,01,17,01,46,0.00
2010,01,17,01,47,0.00
2010,01,17,01,48,0.00
2010,01,17,01,49,0.00
2010,01,17,01,50,0.00
2010,01,17,01,51,0.00
2010,01,17,01,52,0.00
2010,01,17,01,53,0.00
2010,01,17,01,54,0.00
2010,01,17,01,55,0.00
2010,01,17,01,56,0.00
2010,01,17,01,57,0.00
2010,01,17,01,58,0.00
2010,01,17,01,59,0.00
2010,01,17,02,00,0.00
2010,01,17,02,01,0.00
2010,01,17,02,02,0.00
2010,01,17,02,03,0.00
2010,01,17,02,04,0.00
2010,01,17,02,05,0.00
2010,01,17,02,06,0.00
2010,01,17,02,07,0.00
2010,01,17,02,08,0.10
2010,01,17,02,09,0.10
2010,01,17,02,10,1.40
2010,01,17,02,11,0.10
2010,01,17,02,12,1.90
2010,01,17,02,13,0.90
2010,01,17,02,14,0.00
2010,01,17,02,15,0.00
2010,01,17,02,16,0.00
2010,01,17,02,17,0.00
2010,01,17,02,18,0.00
2010,01,17,02,19,0.30
2010,01,17,02,20,0.10
2010,01,17,02,21,0.60
2010,01,17,02,22,2.00
2010,01,17,02,23,1.80
2010,01,17,02,24,0.50
2010,01,17,02,25,0.20
2010,01,17,02,26,0.00
2010,01,17,02,27,1.70
2010,01,17,02,28,0.20
2010,01,17,02,29,0.00
2010,01,17,02,30,0.20
2010,01,17,02,31,0.00
2010,01,17,02,32,0.00
2010,01,17,02,33,0.00
2010,01,17,02,34,0.00
2010,01,17,02,35,0.90
2010,01,17,02,36,1.50
2010,01,17,02,37,0.30
2010,01,17,02,38,1.90
2010,01,17,02,39,2.00
2010,01,17,02,40,0.60
2010,01,17,02,41,2.20
2010,01,17,02,42,0.00
2010,01,17,02,43,0.00
2010,01,17,02,44,0.00
2010,01,17,02,45,0.40
2010,01,17,02,46,1.10
2010,01,17,02,47,0.80
2010,01,17,02,48,2.30
2010,01,17,02,49,2.60
2010,01,17,02,50,2.20
2010,01,17,02,51,0.50
2010,01,17,02,52,0.10
2010,01,17,02,53,0.00
2010,01,17,02,54,0.00
2010,01,17,02,55,0.00
2010,01,17,02,56,0.40
2010,01,17,02,57,0.20
2010,01,17,02,58,0.00
2010,01,17,02,59,0.20
2010,01,17,03,00,2.00
2010,01,17,03,01,1.90
2010,01,17,03,02,2.70
2010,01,17,03,03,1.60
2010,01,17,03,04,0.10
2010,01,17,03,05,0.00
2010,01,17,03,06,0.00
2010,01,17,03,07,0.00
2010,01,17,03,08,0.00
2010,01,17,03,09,0.90
2010,01,17,03,10,1.70
2010,01,17,03,11,1.40
2010,01,17,03,12,1.00
2010,01,17,03,13,2.80
2010,01,17,03,14,1.00
2010,01,17,03,15,2.60
2010,01,17,03,16,4.30
2010,01,17,03,17,2.50
2010,01,17,03,18,0.70
2010,01,17,03,19,0.30
2010,01,17,03,20,0.30
2010,01,17,03,21,0.60
2010,01,17,03,22,2.00
2010,01,17,03,23,2.80
2010,01,17,03,24,1.50
2010,01,17,03,25,3.20
2010,01,17,03,26,2.90
2010,01,17,03,27,3.10
2010,01,17,03,28,1.60
2010,01,17,03,29,1.70
2010,01,17,03,30,0.30
2010,01,17,03,31,0.00
2010,01,17,03,32,0.00
2010,01,17,03,33,0.60
2010,01,17,03,34,0.10
2010,01,17,03,35,0.00
2010,01,17,03,36,0.00
2010,01,17,03,37,0.00
2010,01,17,03,38,0.00
2010,01,17,03,39,0.00
2010,01,17,03,40,0.00
2010,01,17,03,41,0.00
2010,01,17,03,42,0.00
2010,01,17,03,43,0.00
2010,01,17,03,44,0.00
2010,01,17,03,45,0.20
2010,01,17,03,46,0.30
2010,01,17,03,47,0.00
2010,01,17,03,48,0.90
2010,01,17,03,49,3.10
2010,01,17,03,50,3.00
2010,01,17,03,51,4.30
2010,01,17,03,52,3.30
2010,01,17,03,53,1.10
2010,01,17,03,54,0.20
2010,01,17,03,55,0.40
2010,01,17,03,56,0.00
2010,01,17,03,57,0.00
2010,01,17,03,58,0.00
2010,01,17,03,59,0.20
2010,01,17,04,00,0.60
2010,01,17,04,01,0.10
2010,01,17,04,02,0.00
2010,01,17,04,03,0.60
2010,01,17,04,04,0.60
2010,01,17,04,05,1.40
2010,01,17,04,06,0.20
2010,01,17,04,07,0.00
2010,01,17,04,08,0.00
2010,01,17,04,09,0.20
2010,01,17,04,10,0.00
2010,01,17,04,11,0.00
2010,01,17,04,12,0.00
2010,01,17,04,13,0.00
2010,01,17,04,14,0.00
2010,01,17,04,15,0.00
2010,01,17,04,16,0.00
2010,01,17,04,17,0.00
2010,01,17,04,18,0.00
2010,01,17,04,19,0.00
2010,01,17,04,20,0.00
2010,01,17,04,21,0.00
2010,01,17,04,22,0.00
2010,01,17,04,23,0.00
2010,01,17,04,24,0.00
2010,01,17,04,25,0.00
2010,01,17,04,26,0.00
2010,01,17,04,27,0.00
2010,01,17,04,28,0.00
2010,01,17,04,29,0.00
2010,01,17,04,30,0.00
2010,01,17,04,31,0.00
2010,01,17,04,32,0.00
2010,01,17,04,33,0.00
2010,01,17,04,34,0.00
2010,01,17,04,35,0.00
2010,01,17,04,36,0.00
2010,01,17,04,37,0.00
2010,01,17,04,38,0.00
2010,01,17,04,39,0.00
2010,01,17,04,40,0.00
2010,01,17,04,41,0.00
2010,01,17,04,42,0.00
2010,01,17,04,43,0.00
2010,01,17,04,44,0.00
2010,01,17,04,45,0.00
2010,01,17,04,46,0.00
2010,01,17,04,47,0.00
2010,01,17,04,48,0.00
2010,01,17,04,49,0.00
2010,01,17,04,50,0.00
2010,01,17,04,51,0.00
2010,01,17,04,52,0.00
2010,01,17,04,53,0.40
2010,01,17,04,54,1.50
2010,01,17,04,55,0.20
2010,01,17,04,56,0.10
2010,01,17,04,57,0.00
2010,01,17,04,58,1.10
2010,01,17,04,59,0.60
2010,01,17,05,00,0.00
2010,01,17,05,01,0.00
2010,01,17,05,02,0.00
2010,01,17,05,03,0.00
2010,01,17,05,04,0.00
2010,01,17,05,05,0.00
2010,01,17,05,06,0.00
2010,01,17,05,07,0.30
2010,01,17,05,08,2.80
2010,01,17,05,09,2.70
2010,01,17,05,10,2.80
2010,01,17,05,11,2.10
2010,01,17,05,12,1.40
2010,01,17,05,13,0.00
2010,01,17,05,14,0.00
2010,01,17,05,15,0.00
2010,01,17,05,16,0.00
2010,01,17,05,17,0.00
2010,01,17,05,18,0.00
2010,01,17,05,19,0.00
2010,01,17,05,20,0.00
2010,01,17,05,21,0.00
2010,01,17,05,22,1.90
2010,01,17,05,23,3.90
2010,01,17,05,24,4.70
2010,01,17,05,25,3.90
2010,01,17,05,26,3.10
2010,01,17,05,27,1.40
2010,01,17,05,28,4.00
2010,01,17,05,29,4.10
2010,01,17,05,30,3.50
2010,01,17,05,31,2.30
2010,01,17,05,32,0.90
2010,01,17,05,33,0.00
2010,01,17,05,34,2.40
2010,01,17,05,35,2.10
2010,01,17,05,36,3.40
2010,01,17,05,37,1.80
2010,01,17,05,38,0.00
2010,01,17,05,39,0.00
2010,01,17,05,40,0.00
2010,01,17,05,41,0.00
2010,01,17,05,42,0.00
2010,01,17,05,43,0.00
2010,01,17,05,44,0.20
2010,01,17,05,45,0.00
2010,01,17,05,46,0.00
2010,01,17,05,47,0.00
2010,01,17,05,48,0.20
2010,01,17,05,49,0.90
2010,01,17,05,50,1.70
2010,01,17,05,51,0.30
2010,01,17,05,52,0.00
2010,01,17,05,53,0.00
2010,01,17,05,54,0.00
2010,01,17,05,55,0.00
2010,01,17,05,56,0.00
2010,01,17,05,57,0.00
2010,01,17,05,58,0.00
2010,01,17,05,59,0.00
2010,01,17,06,00,0.00
2010,01,17,06,01,0.00
2010,01,17,06,02,0.00
2010,01,17,06,03,0.00
2010,01,17,06,04,0.00
2010,01,17,06,05,0.00
2010,01,17,06,06,0.00
2010,01,17,06,07,0.00
2010,01,17,06,08,0.00
2010,01,17,06,09,0.00
2010,01,17,06,10,0.00
2010,01,17,06,11,0.00
2010,01,17,06,12,0.00
2010,01,17,06,13,0.00
2010,01,17,06,14,0.00
2010,01,17,06,15,0.00
2010,01,17,06,16,0.00
2010,01,17,06,17,0.10
2010,01,17,06,18,0.00
2010,01,17,06,19,0.00
2010,01,17,06,20,0.30
2010,01,17,06,21,0.70
2010,01,17,06,22,2.90
2010,01,17,06,23,0.20
2010,01,17,06,24,0.00
2010,01,17,06,25,0.00
2010,01,17,06,26,0.00
2010,01,17,06,27,0.20
2010,01,17,06,28,2.80
2010,01,17,06,29,0.30
2010,01,17,06,30,0.00
2010,01,17,06,31,0.00
2010,01,17,06,32,0.00
2010,01,17,06,33,0.00
2010,01,17,06,34,0.20
2010,01,17,06,35,1.00
2010,01,17,06,36,0.30
2010,01,17,06,37,1.90
2010,01,17,06,38,2.80
2010,01,17,06,39,2.70
2010,01,17,06,40,0.20
2010,01,17,06,41,0.00
2010,01,17,06,42,0.00
2010,01,17,06,43,0.20
2010,01,17,06,44,0.60
2010,01,17,06,45,0.50
2010,01,17,06,46,2.60
2010,01,17,06,47,0.60
2010,01,17,06,48,0.00
2010,01,17,06,49,0.00
2010,01,17,06,50,0.20
2010,01,17,06,51,2.30
2010,01,17,06,52,0.90
2010,01,17,06,53,1.20
2010,01,17,06,54,0.10
2010,01,17,06,55,0.00
2010,01,17,06,56,0.20
2010,01,17,06,57,1.20
2010,01,17,06,58,1.50
2010,01,17,06,59,3.10
2010,01,17,07,00,0.20
2010,01,17,07,01,1.40
2010,01,17,07,02,1.60
2010,01,17,07,03,1.80
2010,01,17,07,04,1.50
2010,01,17,07,05,0.80
2010,01,17,07,06,4.10
2010,01,17,07,07,0.00
2010,01,17,07,08,1.30
2010,01,17,07,09,4.20
2010,01,17,07,10,4.80
2010,01,17,07,11,5.80
2010,01,17,07,12,4.50
2010,01,17,07,13,7.00
2010,01,17,07,14,5.80
2010,01,17,07,15,4.20
2010,01,17,07,16,3.20
2010,01,17,07,17,2.10
2010,01,17,07,18,6.10
2010,01,17,07,19,6.90
2010,01,17,07,20,8.30
2010,01,17,07,21,6.90
2010,01,17,07,22,9.20
2010,01,17,07,23,11.90
2010,01,17,07,24,8.70
2010,01,17,07,25,8.30
2010,01,17,07,26,8.20
2010,01,17,07,27,7.70
2010,01,17,07,28,11.30
2010,01,17,07,29,6.00
2010,01,17,07,30,6.40
2010,01,17,07,31,5.40
2010,01,17,07,32,9.20
2010,01,17,07,33,7.50
2010,01,17,07,34,15.20
2010,01,17,07,35,14.90
2010,01,17,07,36,8.10
2010,01,17,07,37,7.80
2010,01,17,07,38,7.70
2010,01,17,07,39,12.80
2010,01,17,07,40,6.80
2010,01,17,07,41,6.00
2010,01,17,07,42,7.60
2010,01,17,07,43,11.20
2010,01,17,07,44,7.90
2010,01,17,07,45,11.40
2010,01,17,07,46,8.30
2010,01,17,07,47,9.20
2010,01,17,07,48,10.20
2010,01,17,07,49,13.70
2010,01,17,07,50,9.10
2010,01,17,07,51,15.40
2010,01,17,07,52,13.30
2010,01,17,07,53,9.00
2010,01,17,07,54,7.30
2010,01,17,07,55,13.80
2010,01,17,07,56,5.00
2010,01,17,07,57,11.30
2010,01,17,07,58,11.50
2010,01,17,07,59,11.70
2010,01,17,08,00,6.30
2010,01,17,08,01,13.50
2010,01,17,08,02,8.90
2010,01,17,08,03,5.70
2010,01,17,08,04,10.60
2010,01,17,08,05,15.60
2010,01,17,08,06,12.90
2010,01,17,08,07,14.50
2010,01,17,08,08,11.40
2010,01,17,08,09,8.60
2010,01,17,08,10,8.00
2010,01,17,08,11,14.80
2010,01,17,08,12,8.50
2010,01,17,08,13,8.40
2010,01,17,08,14,14.80
2010,01,17,08,15,16.60
2010,01,17,08,16,14.70
2010,01,17,08,17,16.30
2010,01,17,08,18,16.70
2010,01,17,08,19,11.00
2010,01,17,08,20,15.90
2010,01,17,08,21,11.40
2010,01,17,08,22,7.60
2010,01,17,08,23,6.90
2010,01,17,08,24,10.70
2010,01,17,08,25,15.10
2010,01,17,08,26,9.00
2010,01,17,08,27,17.50
2010,01,17,08,28,10.90
2010,01,17,08,29,11.90
2010,01,17,08,30,11.10
2010,01,17,08,31,15.00
2010,01,17,08,32,11.90
2010,01,17,08,33,12.20
2010,01,17,08,34,18.30
2010,01,17,08,35,8.60
2010,01,17,08,36,9.30
2010,01,17,08,37,15.70
2010,01,17,08,38,15.20
2010,01,17,08,39,14.50
2010,01,17,08,40,10.20
2010,01,17,08,41,12.70
2010,01,17,08,42,13.60
2010,01,17,08,43,11.80
2010,01,17,08,44,16.60
2010,01,17,08,45,12.20
2010,01,17,08,46,11.70
2010,01,17,08,47,8.10
2010,01,17,08,48,12.50
2010,01,17,08,49,12.10
2010,01,17,08,50,10.10
2010,01,17,08,51,9.70
2010,01,17,08,52,10.90
2010,01,17,08,53,7.30
2010,01,17,08,54,14.80
2010,01,17,08,55,12.00
2010,01,17,08,56,19.60
2010,01,17,08,57,12.50
2010,01,17,08,58,6.80
2010,01,17,08,59,18.00
2010,01,17,09,00,17.30
2010,01,17,09,01,15.80
2010,01,17,09,02,14.90
2010,01,17,09,03,13.70
2010,01,17,09,04,13.90
2010,01,17,09,05,6.70
2010,01,17,09,06,8.90
2010,01,17,09,07,9.40
2010,01,17,09,08,12.10
2010,01,17,09,09,10.20
2010,01,17,09,10,11.10
2010,01,17,09,11,12.20
2010,01,17,09,12,13.10
2010,01,17,09,13,15.40
2010,01,17,09,14,11.20
2010,01,17,09,15,12.20
2010,01,17,09,16,14.30
2010,01,17,09,17,10.80
2010,01,17,09,18,11.60
2010,01,17,09,19,15.90
2010,01,17,09,20,13.00
2010,01,17,09,21,11.00
2010,01,17,09,22,11.10
2010,01,17,09,23,12.80
2010,01,17,09,24,13.10
2010,01,17,09,25,10.70
2010,01,17,09,26,10.00
2010,01,17,09,27,10.40
2010,01,17,09,28,13.00
2010,01,17,09,29,13.00
2010,01,17,09,30,8.10
2010,01,17,09,31,3.80
2010,01,17,09,32,4.80
2010,01,17,09,33,11.40
2010,01,17,09,34,10.50
2010,01,17,09,35,10.00
2010,01,17,09,36,12.00
2010,01,17,09,37,6.00
2010,01,17,09,38,13.10
2010,01,17,09,39,9.90
2010,01,17,09,40,5.60
2010,01,17,09,41,11.40
2010,01,17,09,42,7.20
2010,01,17,09,43,7.10
2010,01,17,09,44,11.10
2010,01,17,09,45,9.70
2010,01,17,09,46,13.80
2010,01,17,09,47,8.90
2010,01,17,09,48,12.50
2010,01,17,09,49,14.50
2010,01,17,09,50,15.10
2010,01,17,09,51,9.20
2010,01,17,09,52,7.50
2010,01,17,09,53,10.10
2010,01,17,09,54,8.40
2010,01,17,09,55,6.50
2010,01,17,09,56,8.70
2010,01,17,09,57,8.20
2010,01,17,09,58,10.60
2010,01,17,09,59,9.00
2010,01,17,10,00,12.20
2010,01,17,10,01,13.00
2010,01,17,10,02,5.60
2010,01,17,10,03,7.70
2010,01,17,10,04,10.00
2010,01,17,10,05,8.40
2010,01,17,10,06,12.30
2010,01,17,10,07,11.30
2010,01,17,10,08,11.50
2010,01,17,10,09,7.20
2010,01,17,10,10,9.20
2010,01,17,10,11,9.40
2010,01,17,10,12,11.70
2010,01,17,10,13,10.70
2010,01,17,10,14,8.60
2010,01,17,10,15,15.20
2010,01,17,10,16,14.40
2010,01,17,10,17,11.10
2010,01,17,10,18,8.60
2010,01,17,10,19,8.80
2010,01,17,10,20,13.40
2010,01,17,10,21,12.60
2010,01,17,10,22,9.50
2010,01,17,10,23,7.80
2010,01,17,10,24,7.20
2010,01,17,10,25,7.80
2010,01,17,10,26,7.60
2010,01,17,10,27,7.20
2010,01,17,10,28,5.70
2010,01,17,10,29,6.10
2010,01,17,10,30,5.30
2010,01,17,10,31,8.60
2010,01,17,10,32,4.20
2010,01,17,10,33,8.70
2010,01,17,10,34,7.50
2010,01,17,10,35,5.50
2010,01,17,10,36,7.20
2010,01,17,10,37,5.40
2010,01,17,10,38,11.30
2010,01,17,10,39,13.40
2010,01,17,10,40,17.00
2010,01,17,10,41,10.70
2010,01,17,10,42,7.40
2010,01,17,10,43,8.30
2010,01,17,10,44,8.30
2010,01,17,10,45,4.30
2010,01,17,10,46,10.40
2010,01,17,10,47,11.30
2010,01,17,10,48,10.90
2010,01,17,10,49,8.30
2010,01,17,10,50,10.60
2010,01,17,10,51,10.90
2010,01,17,10,52,10.60
2010,01,17,10,53,8.40
2010,01,17,10,54,6.40
2010,01,17,10,55,8.60
2010,01,17,10,56,11.40
2010,01,17,10,57,8.20
2010,01,17,10,58,11.20
2010,01,17,10,59,11.00
2010,01,17,11,00,7.60
2010,01,17,11,01,7.40
2010,01,17,11,02,6.70
2010,01,17,11,03,5.60
2010,01,17,11,04,5.30
2010,01,17,11,05,4.90
2010,01,17,11,06,4.20
2010,01,17,11,07,6.00
2010,01,17,11,08,5.90
2010,01,17,11,09,6.40
2010,01,17,11,10,8.20
2010,01,17,11,11,7.50
2010,01,17,11,12,5.50
2010,01,17,11,13,6.40
2010,01,17,11,14,6.20
2010,01,17,11,15,6.60
2010,01,17,11,16,6.20
2010,01,17,11,17,5.60
2010,01,17,11,18,4.50
2010,01,17,11,19,2.40
2010,01,17,11,20,2.70
2010,01,17,11,21,4.40
2010,01,17,11,22,3.60
2010,01,17,11,23,5.80
2010,01,17,11,24,7.00
2010,01,17,11,25,5.50
2010,01,17,11,26,9.20
2010,01,17,11,27,7.20
2010,01,17,11,28,6.40
2010,01,17,11,29,4.30
2010,01,17,11,30,6.50
2010,01,17,11,31,5.80
2010,01,17,11,32,5.30
2010,01,17,11,33,5.80
2010,01,17,11,34,9.00
2010,01,17,11,35,8.30
2010,01,17,11,36,8.80
2010,01,17,11,37,9.10
2010,01,17,11,38,7.50
2010,01,17,11,39,4.70
2010,01,17,11,40,7.70
2010,01,17,11,41,7.30
2010,01,17,11,42,4.10
2010,01,17,11,43,8.60
2010,01,17,11,44,8.10
2010,01,17,11,45,10.30
2010,01,17,11,46,5.70
2010,01,17,11,47,4.30
2010,01,17,11,48,5.80
2010,01,17,11,49,7.60
2010,01,17,11,50,7.30
2010,01,17,11,51,5.50
2010,01,17,11,52,6.90
2010,01,17,11,53,5.00
2010,01,17,11,54,4.10
2010,01,17,11,55,6.00
2010,01,17,11,56,6.20
2010,01,17,11,57,6.40
2010,01,17,11,58,6.60
2010,01,17,11,59,6.90
2010,01,17,12,00,1.40
2010,01,17,12,01,4.10
2010,01,17,12,02,7.90
2010,01,17,12,03,4.80
2010,01,17,12,04,6.90
2010,01,17,12,05,4.20
2010,01,17,12,06,3.90
2010,01,17,12,07,3.40
2010,01,17,12,08,3.80
2010,01,17,12,09,4.20
2010,01,17,12,10,8.50
2010,01,17,12,11,5.40
2010,01,17,12,12,6.70
2010,01,17,12,13,3.60
2010,01,17,12,14,4.10
2010,01,17,12,15,6.80
2010,01,17,12,16,5.10
2010,01,17,12,17,6.10
2010,01,17,12,18,6.80
2010,01,17,12,19,6.90
2010,01,17,12,20,5.70
2010,01,17,12,21,2.10
2010,01,17,12,22,3.60
2010,01,17,12,23,6.50
2010,01,17,12,24,3.50
2010,01,17,12,25,3.30
2010,01,17,12,26,5.80
2010,01,17,12,27,4.90
2010,01,17,12,28,4.50
2010,01,17,12,29,2.10
2010,01,17,12,30,0.90
2010,01,17,12,31,1.20
2010,01,17,12,32,5.00
2010,01,17,12,33,3.20
2010,01,17,12,34,2.20
2010,01,17,12,35,2.20
2010,01,17,12,36,4.60
2010,01,17,12,37,7.70
2010,01,17,12,38,4.90
2010,01,17,12,39,3.50
2010,01,17,12,40,0.40
2010,01,17,12,41,2.20
2010,01,17,12,42,1.40
2010,01,17,12,43,3.00
2010,01,17,12,44,2.50
2010,01,17,12,45,1.50
2010,01,17,12,46,2.50
2010,01,17,12,47,1.40
2010,01,17,12,48,7.20
2010,01,17,12,49,3.20
2010,01,17,12,50,3.00
2010,01,17,12,51,3.10
2010,01,17,12,52,5.60
2010,01,17,12,53,6.50
2010,01,17,12,54,6.30
2010,01,17,12,55,1.00
2010,01,17,12,56,2.30
2010,01,17,12,57,2.70
2010,01,17,12,58,1.40
2010,01,17,12,59,4.50
2010,01,17,13,00,3.90
2010,01,17,13,01,2.20
2010,01,17,13,02,1.50
2010,01,17,13,03,3.40
2010,01,17,13,04,0.30
2010,01,17,13,05,2.80
2010,01,17,13,06,0.00
2010,01,17,13,07,0.80
2010,01,17,13,08,1.30
2010,01,17,13,09,2.80
2010,01,17,13,10,3.50
2010,01,17,13,11,2.90
2010,01,17,13,12,3.40
2010,01,17,13,13,0.80
2010,01,17,13,14,0.10
2010,01,17,13,15,3.60
2010,01,17,13,16,6.20
2010,01,17,13,17,4.50
2010,01,17,13,18,4.30
2010,01,17,13,19,6.40
2010,01,17,13,20,8.60
2010,01,17,13,21,5.00
2010,01,17,13,22,6.40
2010,01,17,13,23,8.50
2010,01,17,13,24,8.10
2010,01,17,13,25,5.10
2010,01,17,13,26,8.20
2010,01,17,13,27,4.10
2010,01,17,13,28,6.40
2010,01,17,13,29,10.30
2010,01,17,13,30,5.70
2010,01,17,13,31,6.50
2010,01,17,13,32,5.60
2010,01,17,13,33,10.30
2010,01,17,13,34,11.90
2010,01,17,13,35,8.60
2010,01,17,13,36,7.00
2010,01,17,13,37,12.60
2010,01,17,13,38,10.20
2010,01,17,13,39,9.60
2010,01,17,13,40,8.10
2010,01,17,13,41,7.00
2010,01,17,13,42,8.40
2010,01,17,13,43,9.50
2010,01,17,13,44,8.10
2010,01,17,13,45,3.00
2010,01,17,13,46,7.10
2010,01,17,13,47,6.00
2010,01,17,13,48,5.80
2010,01,17,13,49,5.30
2010,01,17,13,50,5.30
2010,01,17,13,51,6.30
2010,01,17,13,52,6.80
2010,01,17,13,53,3.60
2010,01,17,13,54,5.40
2010,01,17,13,55,5.30
2010,01,17,13,56,1.30
2010,01,17,13,57,3.60
2010,01,17,13,58,2.10
2010,01,17,13,59,7.20
2010,01,17,14,00,8.40
2010,01,17,14,01,8.10
2010,01,17,14,02,5.70
2010,01,17,14,03,9.20
2010,01,17,14,04,8.20
2010,01,17,14,05,12.00
2010,01,17,14,06,11.00
2010,01,17,14,07,10.30
2010,01,17,14,08,10.70
2010,01,17,14,09,8.10
2010,01,17,14,10,7.00
2010,01,17,14,11,7.90
2010,01,17,14,12,3.50
2010,01,17,14,13,9.40
2010,01,17,14,14,6.00
2010,01,17,14,15,6.60
2010,01,17,14,16,5.30
2010,01,17,14,17,8.00
2010,01,17,14,18,5.00
2010,01,17,14,19,6.70
2010,01,17,14,20,5.30
2010,01,17,14,21,6.60
2010,01,17,14,22,3.60
2010,01,17,14,23,6.70
2010,01,17,14,24,4.30
2010,01,17,14,25,3.60
2010,01,17,14,26,4.70
2010,01,17,14,27,6.30
2010,01,17,14,28,3.90
2010,01,17,14,29,2.80
2010,01,17,14,30,3.80
2010,01,17,14,31,3.20
2010,01,17,14,32,0.90
2010,01,17,14,33,2.40
2010,01,17,14,34,3.90
2010,01,17,14,35,3.40
2010,01,17,14,36,2.00
2010,01,17,14,37,0.80
2010,01,17,14,38,4.60
2010,01,17,14,39,2.10
2010,01,17,14,40,3.10
2010,01,17,14,41,1.70
2010,01,17,14,42,0.60
2010,01,17,14,43,4.90
2010,01,17,14,44,2.70
2010,01,17,14,45,2.10
2010,01,17,14,46,4.50
2010,01,17,14,47,5.80
2010,01,17,14,48,3.10
2010,01,17,14,49,1.90
2010,01,17,14,50,3.60
2010,01,17,14,51,4.10
2010,01,17,14,52,4.80
2010,01,17,14,53,1.00
2010,01,17,14,54,3.80
2010,01,17,14,55,0.80
2010,01,17,14,56,1.90
2010,01,17,14,57,0.40
2010,01,17,14,58,3.00
2010,01,17,14,59,3.40
2010,01,17,15,00,2.30
2010,01,17,15,01,4.40
2010,01,17,15,02,1.20
2010,01,17,15,03,4.00
2010,01,17,15,04,4.50
2010,01,17,15,05,2.40
2010,01,17,15,06,1.30
2010,01,17,15,07,2.60
2010,01,17,15,08,4.10
2010,01,17,15,09,3.00
2010,01,17,15,10,4.50
2010,01,17,15,11,3.30
2010,01,17,15,12,1.30
2010,01,17,15,13,0.00
2010,01,17,15,14,0.70
2010,01,17,15,15,2.80
2010,01,17,15,16,1.00
2010,01,17,15,17,0.00
2010,01,17,15,18,0.20
2010,01,17,15,19,0.00
2010,01,17,15,20,1.10
2010,01,17,15,21,3.20
2010,01,17,15,22,2.50
2010,01,17,15,23,7.50
2010,01,17,15,24,2.60
2010,01,17,15,25,5.90
2010,01,17,15,26,5.30
2010,01,17,15,27,7.50
2010,01,17,15,28,7.00
2010,01,17,15,29,4.50
2010,01,17,15,30,6.70
2010,01,17,15,31,6.70
2010,01,17,15,32,6.20
2010,01,17,15,33,6.40
2010,01,17,15,34,5.70
2010,01,17,15,35,3.60
2010,01,17,15,36,8.90
2010,01,17,15,37,10.40
2010,01,17,15,38,7.80
2010,01,17,15,39,9.30
2010,01,17,15,40,5.60
2010,01,17,15,41,9.70
2010,01,17,15,42,9.60
2010,01,17,15,43,6.20
2010,01,17,15,44,6.50
2010,01,17,15,45,8.90
2010,01,17,15,46,3.50
2010,01,17,15,47,4.10
2010,01,17,15,48,4.40
2010,01,17,15,49,4.10
2010,01,17,15,50,7.20
2010,01,17,15,51,4.80
2010,01,17,15,52,4.40
2010,01,17,15,53,5.10
2010,01,17,15,54,5.70
2010,01,17,15,55,5.20
2010,01,17,15,56,4.70
2010,01,17,15,57,5.70
2010,01,17,15,58,5.30
2010,01,17,15,59,5.30
2010,01,17,16,00,5.00
2010,01,17,16,01,1.60
2010,01,17,16,02,4.10
2010,01,17,16,03,2.40
2010,01,17,16,04,2.90
2010,01,17,16,05,1.00
2010,01,17,16,06,0.00
2010,01,17,16,07,1.30
2010,01,17,16,08,1.30
2010,01,17,16,09,2.70
2010,01,17,16,10,3.30
2010,01,17,16,11,4.70
2010,01,17,16,12,2.90
2010,01,17,16,13,3.40
2010,01,17,16,14,3.40
2010,01,17,16,15,0.80
2010,01,17,16,16,0.30
2010,01,17,16,17,0.90
2010,01,17,16,18,2.10
2010,01,17,16,19,1.20
2010,01,17,16,20,0.00
2010,01,17,16,21,0.90
2010,01,17,16,22,0.30
2010,01,17,16,23,0.00
2010,01,17,16,24,0.00
2010,01,17,16,25,0.10
2010,01,17,16,26,0.10
2010,01,17,16,27,1.90
2010,01,17,16,28,1.50
2010,01,17,16,29,0.90
2010,01,17,16,30,4.70
2010,01,17,16,31,4.70
2010,01,17,16,32,4.70
2010,01,17,16,33,4.80
2010,01,17,16,34,6.80
2010,01,17,16,35,5.00
2010,01,17,16,36,3.50
2010,01,17,16,37,4.70
2010,01,17,16,38,6.10
2010,01,17,16,39,5.10
2010,01,17,16,40,2.50
2010,01,17,16,41,3.30
2010,01,17,16,42,3.60
2010,01,17,16,43,3.30
2010,01,17,16,44,5.90
2010,01,17,16,45,5.80
2010,01,17,16,46,2.30
2010,01,17,16,47,5.10
2010,01,17,16,48,5.30
2010,01,17,16,49,4.40
2010,01,17,16,50,5.30
2010,01,17,16,51,4.80
2010,01,17,16,52,2.70
2010,01,17,16,53,2.30
2010,01,17,16,54,4.70
2010,01,17,16,55,2.30
2010,01,17,16,56,3.60
2010,01,17,16,57,2.60
2010,01,17,16,58,2.80
2010,01,17,16,59,0.40
2010,01,17,17,00,1.70
2010,01,17,17,01,4.70
2010,01,17,17,02,1.30
2010,01,17,17,03,3.60
2010,01,17,17,04,4.90
2010,01,17,17,05,3.90
2010,01,17,17,06,2.70
2010,01,17,17,07,3.40
2010,01,17,17,08,1.80
2010,01,17,17,09,3.70
2010,01,17,17,10,0.40
2010,01,17,17,11,3.80
2010,01,17,17,12,3.00
2010,01,17,17,13,1.00
2010,01,17,17,14,5.30
2010,01,17,17,15,3.70
2010,01,17,17,16,5.80
2010,01,17,17,17,6.40
2010,01,17,17,18,4.70
2010,01,17,17,19,6.00
2010,01,17,17,20,5.80
2010,01,17,17,21,7.30
2010,01,17,17,22,6.40
2010,01,17,17,23,6.90
2010,01,17,17,24,8.50
2010,01,17,17,25,6.60
2010,01,17,17,26,3.90
2010,01,17,17,27,3.90
2010,01,17,17,28,3.00
2010,01,17,17,29,1.50
2010,01,17,17,30,0.40
2010,01,17,17,31,2.50
2010,01,17,17,32,3.80
2010,01,17,17,33,0.70
2010,01,17,17,34,0.10
2010,01,17,17,35,0.00
2010,01,17,17,36,0.00
2010,01,17,17,37,0.00
2010,01,17,17,38,0.10
2010,01,17,17,39,0.00
2010,01,17,17,40,0.00
2010,01,17,17,41,0.00
2010,01,17,17,42,0.00
2010,01,17,17,43,0.00
2010,01,17,17,44,0.00
2010,01,17,17,45,0.00
2010,01,17,17,46,0.00
2010,01,17,17,47,0.00
2010,01,17,17,48,0.00
2010,01,17,17,49,0.00
2010,01,17,17,50,0.30
2010,01,17,17,51,0.20
2010,01,17,17,52,0.00
2010,01,17,17,53,0.20
2010,01,17,17,54,0.00
2010,01,17,17,55,0.00
2010,01,17,17,56,0.00
2010,01,17,17,57,0.10
2010,01,17,17,58,1.40
2010,01,17,17,59,0.70
2010,01,17,18,00,0.00